CZ-6A DEB

Satellite information

Favourite Embed

Satellite Type and Status

DEBRISIN ORBIT

Key statistics

Satellite CZ-6A DEB at a glance.

Uptime

969

Days in orbit

Revolutions

≈ 13.9

Per day

Orbit

SSO

Sun Synchronous Orbit

Inclination

98.9

Latest

Satellite identification and parameters

Extended collection of information and parameters for CZ-6A DEB.

Object identification

Identified? True

Debris? True

Object name: CZ-6A DEB

International designator: 2022-151GC

Object number (NORAD): 54452

Object ID (CCSDS): 54452

Country: PEOPLES REPUBLIC OF CHINA (PRC)

Current information (Y/N): Y

RCS size: SMALL

Orbital parameters

Period: 103.679 minutes

Inclination: 98.9369 deg

SMA: 7310.631 km

Apoapsis: 1041.327 km

Periapsis: 823.665 km

RAAN: 164.872 deg

Eccentricy: 0.0148867

Argument of periapsis: 303.205 deg

Mean anomaly: 55.4909 deg

Mean motion: 13.88898372 rev/day

Mean motion (dot): 0.0000004 rev/day2

B* drag term: 0.000063415 1/REarth

Two-line elements (TLE)

Creation date: July 6, 2025, 11:06 p.m.

Reference frame: TEME

Reference center: EARTH

Epoch: July 6, 2025, 8:59 p.m. UTC

TLE line 0: 0 CZ-6A DEB

TLE line 1: 1 54452U 22151GC 25187.87456326 .00000040 00000-0 63415-4 0 9992

TLE line 2: 2 54452 98.9369 164.8720 0148867 303.2050 55.4909 13.88898372134110

Live tracking on map

Real-time ground track for satellite CZ-6A DEB.

In-orbit conjunctions

A list of the most updated potential collisions computed for object CZ-6A DEB.

Target Orbit TCA Probability of collision Miss distance Type
FENGYUN 1C DEB SSO 2025-03-19 06:57:19 0.0001344255 82.0 (m) DEBRIS
CZ-2C DEB SSO 2024-11-10 23:18:22 0.0002738269 820.0 (m) DEBRIS

Associated space launch

Chinese satellite reported for atmospheric/ocean/environmental/spatial parameter research purposes, details TBD.

CZ-6A DEB was lifted into orbit during the mission ‘Long March 6A | Yunhai 3’, on board a Long March 6A space rocket.

The launch took place on Nov. 11, 2022, 10:52 p.m. from Launch Complex 9A.

For more information about the launch, click the button.

Launch to space Long March 6A | Yunhai 3
Long March 6A | Yunhai 3

Agency: N/A

Status: Launch Successful

Launch date: Nov. 11, 2022, 10:52 p.m. UTC

Rocket: Long March 6A

Launch pad: Launch Complex 9A

Location: Taiyuan Satellite Launch Center, People's Republic of China

...

Latest news about this satellite

There are no fresh news available about this satellite. Check back as we update our databases every day.


Newsletter sign-up

Weekly statistics, charts and insights to help you stay on top of the space industry.